Torna al catalogo

SL-8 DEB

AttivoVLEO
NORAD 16867·DEBRIS·🇷🇺 Russia

Lanciato Jul 16, 1986 da Plesetsk Cosmodrome

Loading…

Prossimi Passaggi (prossime 24 ore)

TLE

AggiornatoSource: Space-Track

Epoca: Sep 14, 2026, 08:17 UTC

1 16867U 86052E   26257.34579656  .00012538  00000-0  64075-3 0  9990
2 16867  73.9959  31.4098 0008479 193.8540 166.2424 15.16685556142465

Traccia SL-8 DEB in tempo reale con AllMySat

Download on the App Store